LEGION 5

导读 | 豆包AI

LEGION 5是美国于北京时间2025年2月4日08时发射的卫星,作为美国太空资产布局的一部分,服务于相关航天任务需求。该卫星入轨后将承担对应轨道的运行任务,支撑航天测控、数据传输等空间应用领域能力,进一步强化美国在近地轨道及相关空间域的资源部署,截至2026年3月已在轨运行超一年时间。

Basic Information
目录编号:
62900
目录名称:
LEGION 5
国际标识:
2025-025A
轨道中心:
EARTH
卫星名称:
LEGION 5
卫星全名:
LEGION 5
卫星状态:
在轨 (已飞行450 天)
发射日期:
2025-02-04 UTC
国别 :
美国 (US)
星等 :
--
Orbit Information
数据来源 国际轨道数据 AOE轨道数据
星历时间 2026-04-30T22:46:15+0800
7小时前
查看轨道信息
2026-04-30T08:00:00+0800
22小时前
查看轨道信息
半长轴 6897.286km 6897.355km
偏心率 0.0009405 0.0009363
轨道倾角 45.001° 45.003°
近地点辐角 240.176° 240.188°
升交点赤经 196.438° 199.739°
平近点角 119.819° 358.244°
近地点 512.662km 512.76km
远地点 525.636km 525.676km
周期 95.012分钟 95.013分钟
每日圈数 15.156031 15.155804
Detailed Information
使用方式:
暂无
2D Orbit Map
3D Orbit Map
Orbit Altitude Analysis Chart
Orbit Inclination Analysis Chart
Orbit Comprehensive Analysis Chart
View Comprehensive Chart